Weather reports worldwide

Advertisment
Norderney, Germany (10113): temperature & dewpoint: 11.01.2021 22:00:00 - 17.01.2021 22:00:00 (CET)Norderney, Germany (10113): temperature 5cm & temperature -5cm: 11.01.2021 22:00:00 - 17.01.2021 22:00:00 (CET)Norderney, Germany (10113): temperature -20cm & temperature -100cm: 11.01.2021 22:00:00 - 17.01.2021 22:00:00 (CET)Norderney, Germany (10113): wind speed & gusts: 11.01.2021 22:00:00 - 17.01.2021 22:00:00 (CET)Norderney, Germany (10113): wind direction: 11.01.2021 22:00:00 - 17.01.2021 22:00:00 (CET)Norderney, Germany (10113): reduced air pressure: 11.01.2021 22:00:00 - 17.01.2021 22:00:00 (CET)Norderney, Germany (10113): visibility: 11.01.2021 22:00:00 - 17.01.2021 22:00:00 (CET)Norderney, Germany (10113): sunshine duration: 11.01.2021 22:00:00 - 17.01.2021 22:00:00 (CET)Norderney, Germany (10113): precipitation: 11.01.2021 22:00:00 - 17.01.2021 22:00:00 (CET)
Date & Time tt [°C] td [°C] tt 5cm [°C] tt -5cm [°C] tt -20cm [°C] tt -100cm [°C] ff [km/h] ff [kn] fx [km/h] fx [kn] dd ppp [hPa] vv [km] sd [min] rr [mm]
17.01.2021 22:00:00 4,1 3,0 2,4 0,5 1,3 4,9 19 10 29 16 WNW 1019,4 8 0 0,0
17.01.2021 21:00:00 1,7 1,7 0,7 0,3 1,3 5,0 12 7 19 10 SW 1019,3 3,1 0 0,0
17.01.2021 20:00:00 0,5 0,2 0,3 0,5 1,3 5,0 14 8 21 11 S 1019,2 0,2 0 0,0
17.01.2021 19:00:00 0,7 0,5 0,6 0,7 1,3 5,0 13 7 21 11 S 1018,9 1,7 0 0,5
17.01.2021 18:00:00 0,6 0,3 0,5 0,6 1,3 5,0 16 8 22 12 S 1018,5 0,4 0 0,0
17.01.2021 17:00:00 0,5 0,1 0,4 0,6 1,3 5,0 11 6 22 12 S 1018,4 1,3 0 0,0
17.01.2021 16:00:00 0,5 0,0 0,4 0,5 1,3 5,0 16 8 24 13 S 1017,9 2,3 0 0,0
17.01.2021 15:00:00 0,3 -0,4 0,1 0,5 1,3 5,0 16 9 24 13 S 1017,3 4,2 0 0,0
17.01.2021 14:00:00 0,1 -0,6 0,1 0,6 1,3 5,0 19 11 29 15 SSE 1017,0 4,0 0 0,0
17.01.2021 13:00:00 0,0 -0,8 0,0 0,6 1,4 5,0 21 11 35 19 S 1016,9 3,9 0 0,0
17.01.2021 12:00:00 -0,1 -0,8 0,0 0,6 1,4 5,0 18 10 31 17 S 1016,7 2,6 0 0,0
17.01.2021 11:00:00 -0,5 -1,2 -0,5 0,6 1,4 5,0 20 11 30 16 SSE 1016,4 4,3 0 0,0
17.01.2021 10:00:00 -0,8 -1,6 -0,7 0,6 1,4 5,0 21 12 35 19 SSE 1015,7 3,4 0 0,3
17.01.2021 09:00:00 -0,6 -1,7 -0,8 0,6 1,4 5,0 22 12 35 19 SSE 1015,2 6 0 0,0
17.01.2021 08:00:00 -0,6 -1,7 -0,8 0,6 1,4 5,0 21 11 32 17 SSE 1015,0 7 0 0,0
17.01.2021 07:00:00 -0,7 -1,7 -0,8 0,6 1,4 5,0 21 11 29 16 SSE 1014,7 6 0 0,0
17.01.2021 06:00:00 -0,5 -1,6 -0,8 0,6 1,4 5,1 17 9 31 17 SSE 1014,6 6 0 0,0
17.01.2021 05:00:00 -0,5 -1,7 -0,8 0,6 1,4 5,1 21 12 35 19 S 1014,3 7 0 0,0
17.01.2021 04:00:00 -0,5 -1,6 -0,8 0,6 1,4 5,1 22 12 35 19 S 1014,6 7 0 0,0
17.01.2021 03:00:00 -0,5 -1,4 -0,8 0,5 1,4 5,1 19 10 32 18 S 1015,0 6 0 0,0
17.01.2021 02:00:00 -0,6 -1,4 -0,6 0,5 1,5 5,1 21 11 35 19 SSE 1015,2 4,6 0 0,0
17.01.2021 01:00:00 -0,6 -1,4 -0,8 0,5 1,5 5,1 21 11 32 18 S 1015,9 7 0 0,0
17.01.2021 00:00:00 -0,6 -1,2 -0,6 0,5 1,5 5,1 22 12 34 18 SSE 1016,2 6 0 0,1
16.01.2021 23:00:00 -0,6 -1,1 -0,6 0,5 1,6 5,1 18 10 29 16 SSE 1016,7 3,4 0 0,3
16.01.2021 22:00:00 -0,6 -1,2 -0,6 0,5 1,6 5,1 14 8 31 17 S 1017,4 1,9 0 0,3
16.01.2021 21:00:00 -0,6 -1,4 -0,6 0,6 1,7 5,1 20 11 34 18 S 1017,7 4,0 0 0,1
16.01.2021 20:00:00 0,2 -2,1 0,0 0,7 1,8 5,1 19 11 35 19 S 1018,0 5 0 0,0
16.01.2021 19:00:00 0,8 -2,0 0,5 0,7 1,9 5,1 16 9 26 14 SSE 1018,1 24 0 0,0
16.01.2021 18:00:00 1,0 -1,8 0,6 0,9 2,0 5,1 15 8 25 14 SSE 1018,8 24 0 0,0
16.01.2021 17:00:00 1,3 -1,7 0,9 1,3 2,0 5,1 16 9 26 14 S 1019,6 26 0 0,0
16.01.2021 16:00:00 1,6 -1,2 1,4 1,7 2,1 5,2 15 8 30 16 S 1020,2 24 0 0,0
16.01.2021 15:00:00 1,8 -0,8 1,8 1,9 2,0 5,2 19 10 30 16 S 1020,7 21 0 0,0
16.01.2021 14:00:00 2,0 -0,5 2,0 2,2 1,9 5,2 17 9 30 16 S 1021,8 22 0 0,0
16.01.2021 13:00:00 2,4 -1,1 2,6 2,2 1,7 5,2 15 8 28 15 SSW 1022,7 38 0 0,0
16.01.2021 12:00:00 2,0 -1,1 2,2 1,6 1,6 5,2 14 8 25 14 S 1023,5 35 0 0,0
16.01.2021 11:00:00 1,6 -1,8 1,8 1,2 1,5 5,2 13 7 23 12 S 1024,0 33 0 0,0
16.01.2021 10:00:00 1,3 -1,4 1,2 0,8 1,5 5,2 12 6 24 13 S 1024,4 26 0 0,0
16.01.2021 09:00:00 1,2 -0,7 0,9 0,7 1,5 5,2 11 6 22 12 SSW 1024,9 20 0 0,0
16.01.2021 08:00:00 1,1 -0,3 0,7 0,7 1,5 5,2 14 7 21 11 S 1025,3 16 0 0,0
16.01.2021 07:00:00 1,3 -0,2 0,9 0,8 1,5 5,2 10 6 21 11 SSW 1025,7 18 0 0,0
16.01.2021 06:00:00 1,8 -0,3 1,4 0,8 1,4 5,2 11 6 20 11 SSW 1026,4 26 0 0,0
16.01.2021 05:00:00 1,5 -0,2 1,2 0,7 1,4 5,3 11 6 18 10 S 1027,0 23 0 0,0
16.01.2021 04:00:00 1,9 -0,1 1,4 0,5 1,4 5,3 12 6 23 12 SSW 1027,6 26 0 0,0
16.01.2021 03:00:00 1,5 0,0 1,0 0,4 1,4 5,3 13 7 23 12 SSW 1027,9 23 0 0,0
16.01.2021 02:00:00 0,9 -1,9 0,6 0,4 1,4 5,3 13 7 20 11 S 1028,3 34 0 0,0
16.01.2021 01:00:00 0,7 -3,1 0,4 0,4 1,5 5,3 13 7 19 10 S 1028,8 45 0 0,0
16.01.2021 00:00:00 0,7 -3,5 0,4 0,4 1,5 5,3 14 8 20 11 S 1029,1 50 0 0,0
15.01.2021 23:00:00 0,7 -3,7 0,4 0,4 1,5 5,3 9 5 16 9 S 1029,6 64 0 0,0
15.01.2021 22:00:00 0,6 -3,9 0,4 0,5 1,6 5,3 8 5 12 7 S 1029,7 60 0 0,0
15.01.2021 21:00:00 0,6 -3,7 0,3 0,5 1,6 5,3 7 4 11 6 S 1029,5 54 0 0,0
15.01.2021 20:00:00 0,8 -3,3 0,4 0,5 1,7 5,3 6 3 10 6 SSE 1029,6 59 0 0,0
15.01.2021 19:00:00 0,9 -3,3 0,3 0,7 1,8 5,3 6 3 9 5 SE 1029,5 53 0 0,0
15.01.2021 18:00:00 1,1 -3,5 0,6 0,7 1,8 5,3 4 2 14 7 E 1029,5 60 0 0,0
15.01.2021 17:00:00 1,3 -3,2 0,7 0,9 1,9 5,4 10 5 20 11 NNE 1029,3 62 0 0,0
15.01.2021 16:00:00 1,2 -3,7 1,0 1,1 1,9 5,4 15 8 23 13 NE 1029,2 58 0 0,0
15.01.2021 15:00:00 1,4 -3,7 1,3 1,3 1,9 5,4 16 9 27 15 NNE 1029,1 44 0 0,0
15.01.2021 14:00:00 1,5 -3,5 1,4 1,3 1,9 5,4 21 11 29 16 NNE 1029,0 42 0 0,0
15.01.2021 13:00:00 1,5 -4,3 1,5 1,3 1,8 5,4 21 11 31 17 NE 1028,9 37 0 0,0
15.01.2021 12:00:00 1,6 -3,9 1,5 1,1 1,8 5,4 21 12 39 21 NE 1028,8 45 0 0,0
15.01.2021 11:00:00 1,4 -3,8 1,3 1,0 1,8 5,4 31 17 45 24 NE 1028,7 27 0 0,0
15.01.2021 10:00:00 1,8 -4,1 1,4 0,9 1,9 5,4 37 20 47 26 NNE 1027,8 44 0 0,0
15.01.2021 09:00:00 1,9 -3,1 1,5 0,9 1,9 5,4 34 18 47 26 NNE 1027,2 36 0 0,0
15.01.2021 08:00:00 2,2 -2,5 1,8 1,0 1,9 5,4 40 22 51 27 N 1026,6 41 0 0,0
15.01.2021 07:00:00 2,5 -2,2 2,0 1,1 2,0 5,4 28 15 41 22 NNE 1026,4 46 0 0,0
15.01.2021 06:00:00 1,4 -0,7 1,2 1,2 2,0 5,4 28 15 38 20 NNE 1026,0 56 0 0,0
15.01.2021 05:00:00 2,1 -0,9 1,5 1,1 2,0 5,5 16 8 32 18 N 1025,7 49 0 0,0
15.01.2021 04:00:00 2,3 -1,3 1,7 1,1 2,0 5,5 18 10 28 15 NNE 1025,4 47 0 0,0
15.01.2021 03:00:00 2,6 -2,6 2,0 1,1 2,0 5,5 21 11 29 16 N 1025,3 37 0 0,0
15.01.2021 02:00:00 2,3 -2,9 1,9 1,1 2,0 5,5 13 7 22 12 NE 1025,0 35 0 0,0
15.01.2021 01:00:00 2,3 -2,7 1,9 1,1 2,1 5,5 14 7 27 15 ENE 1024,9 28 0 0,0
15.01.2021 00:00:00 2,3 -3,1 1,8 1,1 2,1 5,5 15 8 27 15 NNE 1024,7 34 0 0,0
14.01.2021 23:00:00 2,2 -3,1 1,8 1,1 2,1 5,5 9 5 23 13 ENE 1024,4 66 0 0,0
14.01.2021 22:00:00 1,9 -2,7 1,5 1,1 2,2 5,5 6 3 17 9 ENE 1024,3 51 0 0,0
14.01.2021 21:00:00 1,8 -3,0 1,3 1,1 2,2 5,5 6 4 22 12 ENE 1023,7 55 0 0,0
14.01.2021 20:00:00 1,8 -2,6 1,5 1,2 2,3 5,5 15 8 32 18 ENE 1023,5 49 0 0,0
14.01.2021 19:00:00 1,7 -3,5 1,4 1,2 2,4 5,5 16 9 29 16 ENE 1023,1 58 0 0,0
14.01.2021 18:00:00 1,5 -3,6 1,3 1,4 2,5 5,5 18 10 27 15 ENE 1022,9 73 0 0,0
14.01.2021 17:00:00 1,6 -2,8 1,3 1,6 2,6 5,6 13 7 23 12 ENE 1022,8 63 0 0,0
14.01.2021 16:00:00 1,5 -3,1 1,4 2,0 2,6 5,6 10 6 19 10 ENE 1022,5 48 0 0,0
14.01.2021 15:00:00 1,6 -2,5 1,6 2,3 2,6 5,6 10 6 22 12 E 1022,1 48 0 0,0
14.01.2021 14:00:00 1,8 -2,5 1,9 2,6 2,5 5,6 16 9 30 16 E 1022,1 53 0 0,0
14.01.2021 13:00:00 2,6 -2,0 3,0 2,9 2,3 5,6 16 9 32 18 E 1021,9 39 7 0,0
14.01.2021 12:00:00 2,6 -2,0 3,3 2,4 2,1 5,6 18 10 32 18 ENE 1021,9 38 25 0,0
14.01.2021 11:00:00 2,3 -2,0 2,4 1,3 2,0 5,6 23 12 35 19 ENE 1021,6 48 7 0,0
14.01.2021 10:00:00 2,1 -2,0 1,5 0,9 2,0 5,6 24 13 35 19 NE 1021,0 19 19 0,0
14.01.2021 09:00:00 2,5 -1,6 2,0 1,0 2,0 5,6 31 17 41 22 NE 1020,3 24 0 0,0
14.01.2021 08:00:00 2,4 -1,9 2,0 0,9 2,0 5,6 33 18 43 23 NE 1019,6 32 0 0,0
14.01.2021 07:00:00 2,6 -1,8 2,1 0,7 2,1 5,6 35 19 40 22 NNE 1019,0 40 0 0,0
14.01.2021 06:00:00 2,4 -2,1 1,5 0,6 2,2 5,6 36 19 45 24 NNE 1018,6 35 0 0,0
14.01.2021 05:00:00 2,8 -1,9 2,2 0,8 2,2 5,6 34 19 45 25 NNE 1018,1 31 0 0,0
14.01.2021 04:00:00 2,7 -2,0 1,9 0,8 2,3 5,6 38 21 53 28 NNE 1017,6 35 0 0,0
14.01.2021 03:00:00 3,0 -1,7 2,0 0,9 2,4 5,6 41 22 53 29 NNE 1016,8 25 0 0,0
14.01.2021 02:00:00 3,1 -2,1 1,9 1,0 2,6 5,6 48 26 55 30 N 1015,8 26 0 0,0
14.01.2021 01:00:00 3,5 -1,4 2,5 1,2 2,7 5,6 46 25 59 32 N 1015,3 19 0 0,0
14.01.2021 00:00:00 3,5 -1,8 2,0 1,2 2,8 5,6 45 24 56 30 N 1014,5 19 0 0,0
13.01.2021 23:00:00 3,5 -1,8 2,4 1,5 2,9 5,6 50 27 60 33 N 1013,7 15 0 0,0
13.01.2021 22:00:00 3,4 0,4 2,3 1,7 3,0 5,6 38 21 72 39 NNW 1012,7 15 0 0,0
13.01.2021 21:00:00 3,8 -2,0 3,0 1,6 3,2 5,6 51 27 67 36 NNW 1011,6 17 0 0,0
13.01.2021 20:00:00 3,6 -3,5 2,5 1,8 3,4 5,6 54 29 67 36 N 1011,1 19 0 0,0
13.01.2021 19:00:00 3,6 -2,7 2,6 2,0 3,6 5,6 53 29 63 34 NNW 1010,1 25 0 0,0
13.01.2021 18:00:00 2,2 0,9 1,3 2,5 3,8 5,6 46 25 74 40 N 1009,7 22 0 0,1
13.01.2021 17:00:00 4,6 -1,3 3,0 3,4 3,9 5,6 57 31 74 40 NNW 1008,3 21 0 0,0
13.01.2021 16:00:00 5,0 2,4 4,1 4,0 3,9 5,6 42 23 78 42 NW 1007,6 11 0 0,3
13.01.2021 15:00:00 4,6 2,5 4,0 4,4 3,8 5,6 67 36 93 50 NW 1007,3 11 2 0,4
13.01.2021 14:00:00 6,1 1,1 6,8 4,8 3,5 5,6 56 30 72 39 WNW 1007,1 14 54 0,0
13.01.2021 13:00:00 5,3 1,7 4,6 4,0 3,4 5,6 43 23 81 44 WNW 1008,0 10 26 0,2
13.01.2021 12:00:00 5,3 1,9 5,0 3,8 3,1 5,6 47 26 61 33 W 1008,6 9 32 0,0
13.01.2021 11:00:00 5,7 0,8 5,5 2,9 3,0 5,6 48 26 60 33 WNW 1008,9 12 28 0,0
13.01.2021 10:00:00 5,0 0,7 3,3 2,5 3,0 5,6 41 22 66 35 WNW 1009,2 11 11 0,3
13.01.2021 09:00:00 4,9 1,4 3,5 2,2 3,0 5,6 39 21 66 35 WNW 1009,3 11 0 0,0
13.01.2021 08:00:00 5,3 0,8 4,5 2,2 3,1 5,6 47 25 59 32 WNW 1009,4 16 0 0,0
13.01.2021 07:00:00 5,1 1,3 3,9 2,1 3,1 5,6 42 23 56 31 WNW 1009,5 15 0 0,0
13.01.2021 06:00:00 4,5 0,8 3,2 2,2 3,2 5,6 40 22 63 34 WNW 1009,5 28 0 0,0
13.01.2021 05:00:00 4,1 0,8 3,2 2,3 3,2 5,6 46 25 59 32 WNW 1010,0 19 0 0,0
13.01.2021 04:00:00 4,4 1,3 3,2 2,4 3,3 5,6 38 21 59 32 W 1009,9 15 0 0,1
13.01.2021 03:00:00 4,0 1,5 3,4 2,6 3,3 5,6 50 27 62 34 NNW 1010,3 15 0 0,0
13.01.2021 02:00:00 4,7 1,2 3,5 2,4 3,3 5,6 44 24 73 39 WNW 1010,3 18 0 0,0
13.01.2021 01:00:00 5,1 0,7 3,8 2,4 3,4 5,6 42 23 61 33 WNW 1010,5 17 0 0,0
13.01.2021 00:00:00 5,2 0,5 3,7 2,5 3,4 5,6 44 24 63 34 NW 1010,5 16 0 0,0
12.01.2021 23:00:00 4,9 1,2 3,5 2,4 3,5 5,6 44 24 67 36 NW 1010,2 12 0 0,0
12.01.2021 22:00:00 4,3 1,0 2,9 2,6 3,6 5,6 42 23 64 35 NW 1010,1 11 0 0,0
12.01.2021 21:00:00 4,6 0,4 3,0 2,5 3,7 5,6 43 23 83 45 WNW 1009,5 14 0 0,1
12.01.2021 20:00:00 5,2 0,2 4,2 2,6 3,8 5,6 48 26 63 34 NW 1009,0 10 0 0,0
12.01.2021 19:00:00 5,2 0,2 4,0 2,8 4,0 5,6 43 23 77 42 NW 1008,1 14 0 0,0
12.01.2021 18:00:00 5,0 0,6 3,7 3,0 4,1 5,6 49 26 72 39 NW 1007,3 16 0 0,0
12.01.2021 17:00:00 4,9 -0,1 3,7 3,3 4,3 5,6 46 25 69 37 NW 1006,6 20 12 0,0
12.01.2021 16:00:00 5,3 -0,2 4,5 3,9 4,4 5,6 42 23 62 34 NNW 1006,0 20 51 0,0
12.01.2021 15:00:00 5,2 -1,0 5,5 4,6 4,4 5,5 52 28 63 34 NNW 1004,8 27 43 0,0
12.01.2021 14:00:00 4,2 1,3 3,6 4,7 4,4 5,5 43 23 57 31 WNW 1003,9 7 17 0,0
12.01.2021 13:00:00 5,2 1,3 5,0 5,0 4,3 5,5 37 20 67 36 WNW 1003,8 17 26 0,0
12.01.2021 12:00:00 5,2 1,2 6,9 4,7 4,1 5,5 30 16 44 24 WNW 1003,8 16 60 0,0
12.01.2021 11:00:00 5,3 0,5 5,8 3,7 4,2 5,5 28 15 41 22 WNW 1003,7 14 45 0,0
12.01.2021 10:00:00 4,8 0,7 3,9 3,2 4,3 5,5 25 13 48 26 WNW 1003,3 11 15 0,0
12.01.2021 09:00:00 5,1 0,7 3,1 3,7 4,4 5,5 27 14 35 19 NNW 1002,4 10 0 0,0
12.01.2021 08:00:00 4,9 1,5 3,7 4,2 4,5 5,5 29 16 36 19 NNW 1001,9 10 0 0,0
12.01.2021 07:00:00 4,9 2,3 3,8 4,4 4,6 5,5 24 13 30 16 N 1001,4 8 0 0,0
12.01.2021 06:00:00 4,8 3,3 4,2 4,6 4,6 5,5 22 12 27 15 N 1001,0 6 0 0,4
12.01.2021 05:00:00 4,8 4,1 4,7 4,8 4,6 5,5 18 10 34 18 NNW 1000,8 3,0 0 0,9
12.01.2021 04:00:00 5,0 4,6 4,8 5,1 4,6 5,5 18 10 55 30 NW 1000,9 3,3 0 1,6
12.01.2021 03:00:00 6,5 5,7 6,1 5,2 4,5 5,5 35 19 52 28 WSW 1000,6 10 0 1,1
12.01.2021 02:00:00 6,3 5,5 5,9 5,0 4,4 5,5 34 18 56 30 WSW 1001,1 9 0 1,0
12.01.2021 01:00:00 6,1 5,1 5,6 4,9 4,3 5,4 31 17 59 32 WSW 1001,8 11 0 0,3
12.01.2021 00:00:00 6,1 4,9 5,5 4,8 4,3 5,4 36 19 58 31 SW 1002,4 12 0 0,2
11.01.2021 23:00:00 5,8 4,9 5,3 4,6 4,2 5,4 36 20 61 33 SW 1002,8 7 0 1,0
11.01.2021 22:00:00 5,5 4,5 5,1 4,5 4,1 5,4 36 19 56 30 SW 1003,4 8 0 0,3

tt = temperature
td = dewpoint
tt 5cm = temperature 5cm
tt -5cm = temperature -5cm
tt -20cm = temperature -20cm
tt -100cm = temperature -100cm
ff = wind speed
fx = gusts
dd = wind direction
ppp = reduced air pressure
vv = visibility
sd = sunshine duration
rr = precipitation

Next stations